Time,TemperatureF,DewpointF,PressureIn,WindDirection,WindDirectionDegrees,WindSpeedMPH,WindSpeedGustMPH,Humidity,HourlyPrecipIn,Conditions,Clouds,dailyrainin,SoftwareType,DateUTC
2013-04-25 00:12:00,58.8,58.2,29.97,WNW,292,0.0,-999.0,98,-99.99,,,0.00,Acu-Link.com,2013-04-25 04:12:00,
2013-04-25 00:28:00,58.5,57.9,29.97,WSW,247,0.0,-999.0,98,-99.99,,,0.00,Acu-Link.com,2013-04-25 04:28:00,
2013-04-25 00:43:00,58.3,57.7,29.97,East,90,0.0,-999.0,98,-99.99,,,0.00,Acu-Link.com,2013-04-25 04:43:00,
2013-04-25 00:58:00,58.1,57.5,29.97,ENE,67,0.0,-999.0,98,-99.99,,,0.00,Acu-Link.com,2013-04-25 04:58:00,
2013-04-25 01:13:00,58.1,57.5,29.96,East,90,0.0,-999.0,98,-99.99,,,0.00,Acu-Link.com,2013-04-25 05:13:00,
2013-04-25 01:28:00,58.3,57.7,29.96,SSW,202,0.0,-999.0,98,-99.99,,,0.00,Acu-Link.com,2013-04-25 05:28:00,
2013-04-25 01:43:00,58.1,57.5,29.96,SW,225,0.0,-999.0,98,-99.99,,,0.00,Acu-Link.com,2013-04-25 05:43:00,
2013-04-25 01:58:00,57.9,57.3,29.96,ENE,67,1.1,-999.0,98,-99.99,,,0.00,Acu-Link.com,2013-04-25 05:58:00,
2013-04-25 02:13:00,57.7,57.1,29.96,NW,315,0.0,-999.0,98,-99.99,,,0.00,Acu-Link.com,2013-04-25 06:13:00,
2013-04-25 02:29:00,57.4,56.8,29.96,West,270,0.0,-999.0,98,-99.99,,,0.00,Acu-Link.com,2013-04-25 06:29:00,
2013-04-25 02:44:00,56.8,56.2,29.96,NW,315,0.0,-999.0,98,-99.99,,,0.00,Acu-Link.com,2013-04-25 06:44:00,
2013-04-25 02:59:00,56.1,55.5,29.96,NW,315,0.0,-999.0,98,-99.99,,,0.00,Acu-Link.com,2013-04-25 06:59:00,
2013-04-25 03:14:00,55.6,55.0,29.96,SW,225,0.0,-999.0,98,-99.99,,,0.00,Acu-Link.com,2013-04-25 07:14:00,
2013-04-25 03:29:00,55.0,54.4,29.96,SW,225,0.0,-999.0,98,-99.99,,,0.00,Acu-Link.com,2013-04-25 07:29:00,
2013-04-25 03:44:00,54.5,53.9,29.97,SW,225,0.0,-999.0,98,-99.99,,,0.00,Acu-Link.com,2013-04-25 07:44:00,
2013-04-25 03:59:00,54.0,53.4,29.97,SW,225,0.0,-999.0,98,-99.99,,,0.00,Acu-Link.com,2013-04-25 07:59:00,
2013-04-25 04:14:00,53.8,53.2,29.97,SW,225,0.0,-999.0,98,-99.99,,,0.00,Acu-Link.com,2013-04-25 08:14:00,
2013-04-25 04:29:00,53.4,52.8,29.98,SW,225,0.0,-999.0,98,-99.99,,,0.00,Acu-Link.com,2013-04-25 08:29:00,
2013-04-25 04:45:00,55.0,54.4,29.98,ESE,112,0.0,-999.0,98,-99.99,,,0.00,Acu-Link.com,2013-04-25 08:45:00,
2013-04-25 05:00:00,54.9,54.3,29.99,WSW,247,0.0,-999.0,98,-99.99,,,0.00,Acu-Link.com,2013-04-25 09:00:00,
2013-04-25 05:15:00,53.8,53.2,30.00,ESE,112,2.2,-999.0,98,-99.99,,,0.00,Acu-Link.com,2013-04-25 09:15:00,
2013-04-25 05:30:00,52.9,52.4,30.00,SSE,157,3.2,-999.0,98,-99.99,,,0.00,Acu-Link.com,2013-04-25 09:30:00,
2013-04-25 05:45:00,52.0,50.3,30.02,East,90,1.7,-999.0,94,-99.99,,,0.00,Acu-Link.com,2013-04-25 09:45:00,
2013-04-25 06:01:00,51.3,49.3,30.03,ESE,112,2.2,-999.0,93,-99.99,,,0.00,Acu-Link.com,2013-04-25 10:01:00,
2013-04-25 06:16:00,50.7,48.2,30.03,SSW,202,2.2,-999.0,91,-99.99,,,0.00,Acu-Link.com,2013-04-25 10:16:00,
2013-04-25 06:31:00,50.5,48.0,30.05,East,90,4.2,-999.0,91,-99.99,,,0.00,Acu-Link.com,2013-04-25 10:31:00,
2013-04-25 06:46:00,50.2,47.1,30.04,SSW,202,0.0,-999.0,89,-99.99,,,0.00,Acu-Link.com,2013-04-25 10:46:00,
2013-04-25 07:01:00,49.5,46.1,30.06,East,90,3.7,-999.0,88,-99.99,,,0.00,Acu-Link.com,2013-04-25 11:01:00,
2013-04-25 07:16:00,48.9,45.8,30.06,West,270,0.0,-999.0,89,-99.99,,,0.00,Acu-Link.com,2013-04-25 11:16:00,
2013-04-25 07:31:00,51.4,48.0,30.07,ESE,112,0.0,-999.0,88,-99.99,,,0.00,Acu-Link.com,2013-04-25 11:31:00,
2013-04-25 07:46:00,54.9,49.2,30.07,ENE,67,2.2,-999.0,81,-99.99,,,0.00,Acu-Link.com,2013-04-25 11:46:00,
2013-04-25 08:01:00,54.1,47.7,30.08,South,180,2.7,-999.0,79,-99.99,,,0.00,Acu-Link.com,2013-04-25 12:01:00,
2013-04-25 08:17:00,54.0,47.3,30.09,NNE,22,4.2,-999.0,78,-99.99,,,0.00,Acu-Link.com,2013-04-25 12:17:00,
2013-04-25 08:32:00,54.5,47.4,30.09,ESE,112,0.0,-999.0,77,-99.99,,,0.00,Acu-Link.com,2013-04-25 12:32:00,
2013-04-25 08:47:00,58.8,49.0,30.09,East,90,4.2,-999.0,70,-99.99,,,0.00,Acu-Link.com,2013-04-25 12:47:00,
2013-04-25 09:02:00,61.2,48.1,30.09,ESE,112,3.2,-999.0,62,-99.99,,,0.00,Acu-Link.com,2013-04-25 13:02:00,
2013-04-25 09:17:00,63.9,50.2,30.09,NE,45,1.7,-999.0,61,-99.99,,,0.00,Acu-Link.com,2013-04-25 13:17:00,
2013-04-25 09:32:00,66.4,49.7,30.10,ESE,112,3.7,-999.0,55,-99.99,,,0.00,Acu-Link.com,2013-04-25 13:32:00,
2013-04-25 09:47:00,67.3,49.6,30.11,NE,45,5.3,-999.0,53,-99.99,,,0.00,Acu-Link.com,2013-04-25 13:47:00,
2013-04-25 10:03:00,69.1,48.6,30.10,SE,135,5.3,-999.0,48,-99.99,,,0.00,Acu-Link.com,2013-04-25 14:03:00,
2013-04-25 10:18:00,64.0,46.0,30.10,NE,45,1.7,-999.0,52,-99.99,,,0.00,Acu-Link.com,2013-04-25 14:18:00,
2013-04-25 10:33:00,64.4,46.4,30.11,WNW,292,3.2,-999.0,52,-99.99,,,0.00,Acu-Link.com,2013-04-25 14:33:00,
2013-04-25 10:48:00,65.3,46.2,30.12,ESE,112,4.2,-999.0,50,-99.99,,,0.00,Acu-Link.com,2013-04-25 14:48:00,
2013-04-25 11:03:00,66.2,47.0,30.12,ESE,112,4.2,-999.0,50,-99.99,,,0.00,Acu-Link.com,2013-04-25 15:03:00,
2013-04-25 11:18:00,68.0,49.2,30.12,East,90,3.7,-999.0,51,-99.99,,,0.00,Acu-Link.com,2013-04-25 15:18:00,
2013-04-25 11:33:00,67.6,49.9,30.12,NE,45,3.7,-999.0,53,-99.99,,,0.00,Acu-Link.com,2013-04-25 15:33:00,
2013-04-25 11:48:00,68.5,51.2,30.13,South,180,5.3,-999.0,54,-99.99,,,0.00,Acu-Link.com,2013-04-25 15:48:00,
2013-04-25 12:03:00,68.9,50.5,30.12,ESE,112,2.2,-999.0,52,-99.99,,,0.00,Acu-Link.com,2013-04-25 16:03:00,
2013-04-25 12:19:00,69.4,49.9,30.12,ESE,112,2.7,-999.0,50,-99.99,,,0.00,Acu-Link.com,2013-04-25 16:19:00,
2013-04-25 12:34:00,69.4,50.5,30.12,ENE,67,1.7,-999.0,51,-99.99,,,0.00,Acu-Link.com,2013-04-25 16:34:00,
2013-04-25 12:49:00,71.2,49.9,30.12,NNE,22,1.1,-999.0,47,-99.99,,,0.00,Acu-Link.com,2013-04-25 16:49:00,
2013-04-25 13:04:00,71.1,48.7,30.12,NE,45,4.2,-999.0,45,-99.99,,,0.00,Acu-Link.com,2013-04-25 17:04:00,
2013-04-25 13:19:00,72.5,49.9,30.11,SW,225,1.7,-999.0,45,-99.99,,,0.00,Acu-Link.com,2013-04-25 17:19:00,
2013-04-25 13:34:00,72.7,50.1,30.11,ESE,112,5.3,-999.0,45,-99.99,,,0.00,Acu-Link.com,2013-04-25 17:34:00,
2013-04-25 13:49:00,73.9,50.0,30.10,ESE,112,4.7,-999.0,43,-99.99,,,0.00,Acu-Link.com,2013-04-25 17:49:00,
2013-04-25 14:04:00,73.0,49.8,30.10,ENE,67,4.2,-999.0,44,-99.99,,,0.00,Acu-Link.com,2013-04-25 18:04:00,
2013-04-25 14:20:00,75.7,48.3,30.09,West,270,2.2,-999.0,38,-99.99,,,0.00,Acu-Link.com,2013-04-25 18:20:00,
2013-04-25 14:35:00,77.0,50.1,30.09,SSE,157,3.2,-999.0,39,-99.99,,,0.00,Acu-Link.com,2013-04-25 18:35:00,
2013-04-25 14:50:00,75.2,50.5,30.09,ENE,67,3.7,-999.0,42,-99.99,,,0.00,Acu-Link.com,2013-04-25 18:50:00,
2013-04-25 15:05:00,74.3,48.4,30.09,ESE,112,3.2,-999.0,40,-99.99,,,0.00,Acu-Link.com,2013-04-25 19:05:00,
2013-04-25 15:20:00,75.0,49.0,30.08,ESE,112,4.2,-999.0,40,-99.99,,,0.00,Acu-Link.com,2013-04-25 19:20:00,
2013-04-25 15:35:00,75.4,47.3,30.08,NE,45,3.7,-999.0,37,-99.99,,,0.00,Acu-Link.com,2013-04-25 19:35:00,
2013-04-25 15:50:00,75.7,49.0,30.06,SSE,157,4.7,-999.0,39,-99.99,,,0.00,Acu-Link.com,2013-04-25 19:50:00,
2013-04-25 16:06:00,76.6,47.6,30.06,WNW,292,2.2,-999.0,36,-99.99,,,0.00,Acu-Link.com,2013-04-25 20:06:00,
2013-04-25 16:21:00,75.9,50.5,30.05,West,270,0.0,-999.0,41,-99.99,,,0.00,Acu-Link.com,2013-04-25 20:21:00,
2013-04-25 16:36:00,75.6,47.5,30.05,ESE,112,3.2,-999.0,37,-99.99,,,0.00,Acu-Link.com,2013-04-25 20:36:00,
2013-04-25 16:51:00,75.0,48.3,30.04,WNW,292,0.0,-999.0,39,-99.99,,,0.00,Acu-Link.com,2013-04-25 20:51:00,
2013-04-25 17:06:00,75.2,47.8,30.04,ESE,112,3.7,-999.0,38,-99.99,,,0.00,Acu-Link.com,2013-04-25 21:06:00,
2013-04-25 17:21:00,74.1,46.2,30.04,NNW,337,0.0,-999.0,37,-99.99,,,0.00,Acu-Link.com,2013-04-25 21:21:00,
2013-04-25 17:36:00,73.9,48.0,30.04,WSW,247,0.0,-999.0,40,-99.99,,,0.00,Acu-Link.com,2013-04-25 21:36:00,
2013-04-25 17:51:00,75.0,47.7,30.05,East,90,3.7,-999.0,38,-99.99,,,0.00,Acu-Link.com,2013-04-25 21:51:00,
2013-04-25 18:06:00,73.2,48.1,30.06,ESE,112,2.7,-999.0,41,-99.99,,,0.00,Acu-Link.com,2013-04-25 22:06:00,
2013-04-25 18:22:00,72.0,48.3,30.06,NNW,337,0.0,-999.0,43,-99.99,,,0.00,Acu-Link.com,2013-04-25 22:22:00,
2013-04-25 18:37:00,70.7,47.7,30.06,WNW,292,0.0,-999.0,44,-99.99,,,0.00,Acu-Link.com,2013-04-25 22:37:00,
2013-04-25 18:52:00,69.8,46.3,30.07,SSW,202,0.0,-999.0,43,-99.99,,,0.00,Acu-Link.com,2013-04-25 22:52:00,
2013-04-25 19:07:00,68.5,46.3,30.07,North,0,0.0,-999.0,45,-99.99,,,0.00,Acu-Link.com,2013-04-25 23:07:00,
2013-04-25 19:22:00,67.3,46.4,30.07,NNE,22,0.0,-999.0,47,-99.99,,,0.00,Acu-Link.com,2013-04-25 23:22:00,
2013-04-25 19:37:00,66.2,45.9,30.07,NNW,337,0.0,-999.0,48,-99.99,,,0.00,Acu-Link.com,2013-04-25 23:37:00,
2013-04-25 19:52:00,64.2,47.2,30.07,NNW,337,0.0,-999.0,54,-99.99,,,0.00,Acu-Link.com,2013-04-25 23:52:00,
2013-04-25 20:08:00,62.1,47.6,30.08,ENE,67,0.0,-999.0,59,-99.99,,,0.00,Acu-Link.com,2013-04-26 00:08:00,
2013-04-25 20:23:00,59.9,48.1,30.08,NW,315,0.0,-999.0,65,-99.99,,,0.00,Acu-Link.com,2013-04-26 00:23:00,
2013-04-25 20:38:00,58.1,48.7,30.09,NNW,337,0.0,-999.0,71,-99.99,,,0.00,Acu-Link.com,2013-04-26 00:38:00,
2013-04-25 20:53:00,56.7,48.1,30.09,East,90,0.0,-999.0,73,-99.99,,,0.00,Acu-Link.com,2013-04-26 00:53:00,
2013-04-25 21:08:00,56.1,46.5,30.10,SE,135,0.0,-999.0,70,-99.99,,,0.00,Acu-Link.com,2013-04-26 01:08:00,
2013-04-25 21:23:00,55.6,43.2,30.11,WNW,292,0.0,-999.0,63,-99.99,,,0.00,Acu-Link.com,2013-04-26 01:23:00,
2013-04-25 21:38:00,55.4,43.8,30.11,NNE,22,0.0,-999.0,65,-99.99,,,0.00,Acu-Link.com,2013-04-26 01:38:00,
2013-04-25 21:54:00,55.0,40.9,30.13,ESE,112,0.0,-999.0,59,-99.99,,,0.00,Acu-Link.com,2013-04-26 01:54:00,
2013-04-25 22:09:00,54.7,41.5,30.13,ENE,67,0.0,-999.0,61,-99.99,,,0.00,Acu-Link.com,2013-04-26 02:09:00,
2013-04-25 22:24:00,53.8,39.8,30.14,ESE,112,0.0,-999.0,59,-99.99,,,0.00,Acu-Link.com,2013-04-26 02:24:00,
2013-04-25 22:39:00,53.6,40.5,30.14,NW,315,0.0,-999.0,61,-99.99,,,0.00,Acu-Link.com,2013-04-26 02:39:00,
2013-04-25 22:54:00,52.7,40.9,30.15,East,90,0.0,-999.0,64,-99.99,,,0.00,Acu-Link.com,2013-04-26 02:54:00,
2013-04-25 23:09:00,51.6,39.0,30.15,East,90,1.1,-999.0,62,-99.99,,,0.00,Acu-Link.com,2013-04-26 03:09:00,
2013-04-25 23:24:00,50.5,40.0,30.15,ESE,112,0.0,-999.0,67,-99.99,,,0.00,Acu-Link.com,2013-04-26 03:24:00,
2013-04-25 23:39:00,49.3,39.9,30.16,NW,315,0.0,-999.0,70,-99.99,,,0.00,Acu-Link.com,2013-04-26 03:39:00,
2013-04-25 23:55:00,48.0,39.4,30.17,East,90,0.0,-999.0,72,-99.99,,,0.00,Acu-Link.com,2013-04-26 03:55:00,